Edwards, CO (81632)

2:45 AM MDT on August 30, 2014 (GMT -0600)
Edwards CO | Change Station
CLOSE
Current Station
Personal Weather Station
Location: Edwards, CO
Elevation: 7152 ft
Nearby Weather Stations

Elev 7152 ft 39.65 °N, 106.63 °W | Updated 5 seconds ago

Clear
Clear
41.4 °F
Feels Like 41 °F
N
0.7
Wind Variable Wind from SW
Gusts 1.6 mph

Today
High -- | Low -- °F
--% Chance of Precip.
Yesterday
High -- | Low -- °F
Precip. -- in
6:32 AM 7:40 PM
Waxing Crescent, 20% visible
Pressure 30.28 in
Visibility 10.0 miles
Clouds Clear
Windchill 41 °F
Dew Point 39 °F
Humidity 92%
Rainfall 0.00 in
Snow Depth Not available.
UV 0 out of 12
Pollen 10.40 out of 12
Air Quality Not available.
Flu Activity Not available.
METAR KEGE 300835Z AUTO 00000KT 10SM CLR 09/07 A3028 RMK AO1

More Conditions Fewer Conditions

Pressure 30.28 in
Visibility 10.0 miles
Clouds Clear
Windchill 41 °F
Dew Point 39 °F
Humidity 92%
Rainfall 0.00 in
Snow Depth Not available.
UV 0 out of 12
Pollen 10.40 out of 12
Air Quality Not available.
Flu Activity Not available.
METAR KEGE 300835Z AUTO 00000KT 10SM CLR 09/07 A3028 RMK AO1

More Conditions Fewer Conditions

10-Day Weather Forecast

Almanac

Astronomy

Aug. 30, 2014 Rise Set
Actual Time 6:32 AM MDT 7:40 PM MDT
Civil Twilight 6:04 AM MDT 8:08 PM MDT
Nautical Twilight 5:31 AM MDT 8:41 PM MDT
Astronomical Twilight 4:57 AM MDT 9:15 PM MDT
Moon 11:22 AM MDT 10:17 PM MDT
Length of Visible Light 14h 03m
Length of Day
13h 07m
Tomorrow will be 2m 29s shorter.
Waxing Crescent, 20% of the Moon is Illuminated
Today
Waxing Crescent
Sep 2
First Quarter
Sep 8
Full
Sep 15
Last Quarter
Sep 24
New

Today's Extremes

State Highs State Lows

Community

WunderPhotos

Upload Photos

1,748,474 photos uploaded!

Nearby

Snow Depth

Station Depth Elevation
Mccoy Park 15 in 9480 ft
Vail Mountain 87 in 10300 ft
Kiln 1 in 9600 ft
Summit Ranch 1 in 9400 ft
Nast Lake 0 in 8700 ft

Earthquake Activity

City Distance Mag. Time & Date
No recent earthquake activity has been reported nearby.
Minimum magnitude displayed is 2.5.

Coastal Water Temperatures

Place Temperature
No Stations Reporting

Nearby Weather Stations